| time (UTC) | temp C | wind direction | speed KPH | gust KPH | rain 1hr cm | rain 24hr cm | rain mn cm | humidity % | barometer mb |
| 20260503071557 | 17 | 313 | 0.0 | 8.0 | 0.00 | 0.00 | 0.00 | 50 | 1016.0 |
| 20260503054520 | 7 | 267 | 0.0 | 0.0 | 0.00 | 0.00 | 0.00 | 87 | 1015.7 |
| 20260503053009 | 6 | 267 | 0.0 | 0.0 | 0.00 | 0.00 | 0.00 | 87 | 1015.7 |
| 20260503051555 | 6 | 267 | 0.0 | 0.0 | 0.00 | 0.00 | 0.00 | 84 | 1015.7 |
| 20260503050059 | 6 | 267 | 0.0 | 0.0 | 0.00 | 0.00 | 0.00 | 84 | 1015.7 |
| 20260503044550 | 6 | 267 | 0.0 | 0.0 | 0.00 | 0.00 | 0.00 | 84 | 1015.6 |
| 20260503043051 | 6 | 267 | 0.0 | 0.0 | 0.00 | 0.00 | 0.00 | 83 | 1015.6 |
| 20260503041547 | 6 | 267 | 0.0 | 0.0 | 0.00 | 0.00 | 0.00 | 83 | 1015.7 |
| 20260503040045 | 6 | 267 | 0.0 | 0.0 | 0.00 | 0.00 | 0.00 | 83 | 1015.6 |
| 20260503034551 | 6 | 267 | 0.0 | 0.0 | 0.00 | 0.00 | 0.00 | 83 | 1015.7 |
| 20260503033054 | 6 | 267 | 0.0 | 0.0 | 0.00 | 0.00 | 0.00 | 82 | 1015.6 |
| 20260503031531 | 6 | 267 | 0.0 | 0.0 | 0.00 | 0.00 | 0.00 | 81 | 1015.6 |
| 20260503030030 | 6 | 267 | 0.0 | 0.0 | 0.00 | 0.00 | 0.00 | 81 | 1015.6 |
| 20260503024513 | 6 | 267 | 0.0 | 0.0 | 0.00 | 0.00 | 0.00 | 81 | 1015.7 |
| 20260503023011 | 6 | 267 | 0.0 | 0.0 | 0.00 | 0.00 | 0.00 | 81 | 1015.7 |
| 20260503021511 | 7 | 267 | 0.0 | 0.0 | 0.00 | 0.00 | 0.00 | 80 | 1015.8 |
| 20260503020009 | 7 | 267 | 0.0 | 0.0 | 0.00 | 0.00 | 0.00 | 79 | 1015.8 |
| 20260503014507 | 7 | 267 | 0.0 | 0.0 | 0.00 | 0.00 | 0.00 | 78 | 1015.8 |
| 20260503013011 | 7 | 267 | 0.0 | 0.0 | 0.00 | 0.00 | 0.00 | 78 | 1016.0 |
| 20260503011503 | 7 | 267 | 0.0 | 0.0 | 0.00 | 0.00 | 0.00 | 78 | 1015.9 |
| 20260503010001 | 7 | 267 | 0.0 | 0.0 | 0.00 | 0.00 | 0.00 | 77 | 1015.9 |
| 20260503004546 | 7 | 267 | 0.0 | 0.0 | 0.00 | 0.00 | 0.00 | 77 | 1016.0 |
| 20260503003044 | 7 | 267 | 0.0 | 0.0 | 0.00 | 0.00 | 0.00 | 75 | 1016.1 |
| 20260503001542 | 7 | 267 | 0.0 | 0.0 | 0.00 | 0.00 | 0.00 | 75 | 1016.1 |
| 20260503000040 | 8 | 267 | 0.0 | 0.0 | 0.00 | 0.00 | 0.00 | 74 | 1016.2 |
| 20260502234548 | 8 | 267 | 0.0 | 0.0 | 0.00 | 0.00 | 0.00 | 74 | 1016.4 |
| 20260502233035 | 8 | 267 | 0.0 | 0.0 | 0.00 | 0.00 | 0.00 | 73 | 1016.4 |
| 20260502231534 | 8 | 267 | 0.0 | 0.0 | 0.00 | 0.00 | 0.00 | 72 | 1016.4 |
| 20260502230033 | 8 | 267 | 0.0 | 0.0 | 0.00 | 0.00 | 0.00 | 71 | 1016.5 |
| 20260502224517 | 9 | 267 | 0.0 | 0.0 | 0.00 | 0.00 | 0.00 | 70 | 1016.6 |
| 20260502223015 | 9 | 267 | 0.0 | 0.0 | 0.00 | 0.00 | 0.00 | 69 | 1016.7 |
| 20260502221512 | 10 | 267 | 0.0 | 0.0 | 0.00 | 0.00 | 0.00 | 68 | 1016.7 |
| 20260502220015 | 10 | 267 | 0.0 | 0.0 | 0.00 | 0.00 | 0.00 | 67 | 1016.6 |
| 20260502214508 | 10 | 267 | 0.0 | 0.0 | 0.00 | 0.00 | 0.00 | 66 | 1016.7 |
| 20260502213014 | 11 | 267 | 0.0 | 0.0 | 0.00 | 0.00 | 0.00 | 64 | 1016.7 |
| 20260502211505 | 11 | 267 | 0.0 | 0.0 | 0.00 | 0.00 | 0.00 | 63 | 1016.8 |
| 20260502210005 | 12 | 267 | 0.0 | 0.0 | 0.00 | 0.00 | 0.00 | 62 | 1016.9 |
| 20260502204559 | 12 | 267 | 0.0 | 0.0 | 0.00 | 0.00 | 0.00 | 60 | 1017.0 |
| 20260502203117 | 13 | 267 | 0.0 | 0.0 | 0.00 | 0.00 | 0.00 | 58 | 1017.1 |
| 20260502201604 | 13 | 267 | 0.0 | 0.0 | 0.00 | 0.00 | 0.00 | 56 | 1017.2 |
| 20260502200059 | 14 | 267 | 0.0 | 0.0 | 0.00 | 0.00 | 0.00 | 55 | 1017.1 |
| 20260502194555 | 15 | 267 | 0.0 | 0.0 | 0.00 | 0.00 | 0.00 | 52 | 1017.2 |
| 20260502193101 | 16 | 267 | 0.0 | 0.0 | 0.00 | 0.00 | 0.00 | 50 | 1017.1 |
| 20260502191551 | 17 | 267 | 0.0 | 0.0 | 0.00 | 0.00 | 0.00 | 48 | 1017.1 |
| 20260502190050 | 18 | 267 | 0.0 | 0.0 | 0.00 | 0.00 | 0.00 | 45 | 1017.0 |
| 20260502184538 | 20 | 267 | 0.0 | 0.0 | 0.00 | 0.00 | 0.00 | 42 | 1016.9 |
| 20260502183032 | 22 | 267 | 0.0 | 0.0 | 0.00 | 0.00 | 0.00 | 36 | 1017.0 |
| 20260502181522 | 23 | 267 | 0.0 | 0.0 | 0.00 | 0.00 | 0.00 | 32 | 1016.9 |
| 20260502163011 | 25 | 267 | 0.0 | 0.0 | 0.00 | 0.00 | 0.00 | 21 | 1017.5 |
| 20260502161557 | 25 | 267 | 0.0 | 3.2 | 0.00 | 0.00 | 0.00 | 20 | 1017.7 |
| 20260502151608 | 25 | 271 | 0.0 | 6.4 | 0.00 | 0.00 | 0.00 | 22 | 1018.4 |
| 20260502123012 | 23 | 264 | 0.0 | 6.4 | 0.00 | 0.00 | 0.00 | 30 | 1020.2 |
| 20260502121513 | 23 | 281 | 0.0 | 8.0 | 0.00 | 0.00 | 0.00 | 32 | 1020.4 |
| 20260502114554 | 23 | 274 | 0.0 | 8.0 | 0.00 | 0.00 | 0.00 | 31 | 1020.9 |
| 20260502113103 | 23 | 270 | 0.0 | 6.4 | 0.00 | 0.00 | 0.00 | 31 | 1021.1 |
| 20260502111552 | 23 | 49 | 0.0 | 3.2 | 0.00 | 0.00 | 0.00 | 32 | 1021.3 |
| 20260502110049 | 23 | 55 | 0.0 | 3.2 | 0.00 | 0.00 | 0.00 | 33 | 1021.4 |
| 20260502104548 | 22 | 40 | 0.0 | 4.8 | 0.00 | 0.00 | 0.00 | 30 | 1021.6 |
| 20260502103043 | 22 | 49 | 0.0 | 6.4 | 0.00 | 0.00 | 0.00 | 33 | 1021.8 |
| 20260502101559 | 22 | 350 | 1.6 | 6.4 | 0.00 | 0.00 | 0.00 | 32 | 1021.9 |
| 20260502091520 | 21 | 292 | 0.0 | 3.2 | 0.00 | 0.00 | 0.00 | 38 | 1022.5 |